{"data":{"norad_id":63983,"intl_designator":"2025-100B","name":"SCS-01 B","alt_names":[],"object_type":"PAYLOAD","status":"ACTIVE","operator":null,"country":"PRC","launch_date":"2025-05-14","launch_site_code":"JSC","launch_vehicle":null,"mission":null,"orbit_class":"UNKNOWN","rcs_meters":null,"size_class":null,"mass_kg":null,"dimensions":null,"purposes":[],"wikipedia_slug":null,"has_3d_model":false,"image_url":null,"decayed_at":null,"tle_current":{"epoch":"2026-05-25T03:48:51.539040Z","epoch_age_seconds":51543,"freshness":"FRESH","line1":"1 63983U 25100B   26145.15892985  .00026244  00000+0  71675-3 0  9998","line2":"2 63983  97.3638 222.1409 0008786  27.7776 332.3936 15.37349719 57372","mean_motion":15.37349719,"eccentricity":0.0008786,"inclination_deg":97.3638,"raan_deg":222.1409,"arg_perigee_deg":27.7776,"mean_anomaly_deg":332.3936,"bstar":0.00071675,"rev_number":5737,"period_min":93.667692015885,"perigee_km":447.94740303012,"apogee_km":459.95274643785,"semimajor_km":6832.087074734,"source":"CELESTRAK","updated_at":"2026-05-25T13:38:04.127179Z"}}}